Hayward, WI

12:36 AM CDT on September 01, 2016 (GMT -0500)
Sawyer County

Weather History for KHYR - March, 2014

Change the Weather History Date:

Tuesday, March 4, 2014

  Actual Average Record
Temperature  
Mean Temperature 8 °F -  
Max Temperature 19 °F 47 °F 55 °F (2006)
Min Temperature -4 °F 11 °F -17 °F (2015)
Degree Days  
Heating Degree Days 58    
Moisture  
Dew Point 0 °F    
Average Humidity 74    
Maximum Humidity 84    
Minimum Humidity 50    
Precipitation  
Precipitation 0.01 in - - ()
Sea Level Pressure  
Sea Level Pressure 30.26 in    
Wind  
Wind Speed 1 mph (NE)    
Max Wind Speed 6 mph    
Max Gust Speed -    
Visibility 7 miles    
Events Snow    
Averages and records for this station are not official NWS values.
T = Trace of Precipitation, MM = Missing Value Source: NWS Daily Summary

Daily Weather History Graph

Daily Weather History Graph

Search for Another Location

Airport or City:

Trip Planner

Search our weather history database for the weather conditions in past years. The results will help you decide how hot, cold, wet, or windy it might be!

Date:

Astronomy

Mar. 04, 2014 Rise Set
Actual Time 6:39 AM CST 5:56 PM CST
Civil Twilight 6:09 AM CST 6:26 PM CST
Nautical Twilight 5:34 AM CST 7:01 PM CST
Astronomical Twilight 4:59 AM CST 7:35 PM CST
Moon 8:12 AM CST (3/4) 10:19 PM CST (3/4)
Length of Visible Light 12h 17m
Length of Day
11h 17m
Waxing Crescent, 15% of the Moon is Illuminated
Mar 4
Waxing Crescent
Mar 8
First Quarter
Mar 16
Full
Mar 23
Last Quarter
Mar 30
New

Hourly Weather History & Observations

Time (CST) Temp. Windchill Dew Point Humidity Pressure Visibility Wind Dir Wind Speed Gust Speed Precip Events Conditions
12:53 AM 5.0 °F -2.1 °F -0.0 °F 80% 30.30 in 9.0 mi South 3.5 mph - N/A   Overcast
1:53 AM 5.0 °F - -0.0 °F 80% 30.29 in 8.0 mi Calm Calm - 0.00 in   Overcast
2:43 AM 5.0 °F - -0.0 °F 80% 30.17 in 2.0 mi Calm Calm - 0.01 in Snow Light Snow
2:47 AM 5.0 °F - -0.4 °F 78% 30.17 in 1.5 mi Calm Calm - 0.01 in Snow Light Snow
2:53 AM 5.0 °F - -0.0 °F 80% 30.26 in 1.5 mi Calm Calm - 0.01 in Snow Light Snow
3:19 AM 5.0 °F - -0.0 °F 80% 30.17 in 2.5 mi Calm Calm - 0.00 in Snow Light Snow
3:25 AM 5.0 °F - -0.0 °F 80% 30.17 in 3.0 mi Calm Calm - 0.00 in Snow Light Snow
3:53 AM 5.0 °F - -0.0 °F 80% 30.25 in 8.0 mi Calm Calm - 0.00 in   Overcast
4:36 AM 5.0 °F - -0.0 °F 80% 30.16 in 2.0 mi Calm Calm - 0.00 in Snow Light Snow
4:53 AM 3.9 °F - -0.0 °F 84% 30.25 in 3.0 mi Calm Calm - 0.00 in Snow Light Snow
5:00 AM 3.9 °F - -0.0 °F 84% 30.15 in 2.0 mi Calm Calm - 0.00 in Snow Light Snow
5:09 AM 3.9 °F - -0.0 °F 84% 30.16 in 2.5 mi Calm Calm - 0.00 in Snow Light Snow
5:13 AM 3.9 °F - -0.0 °F 84% 30.16 in 3.0 mi Calm Calm - 0.00 in Snow Light Snow
5:53 AM 3.9 °F - -0.0 °F 84% 30.27 in 6.0 mi Calm Calm - 0.00 in Snow Light Snow
6:53 AM 3.9 °F - -0.0 °F 84% 30.27 in 10.0 mi Calm Calm - 0.00 in   Overcast
7:53 AM 5.0 °F - -0.9 °F 76% 30.27 in 10.0 mi Calm Calm - N/A   Overcast
8:53 AM 5.0 °F - -0.0 °F 80% 30.27 in 10.0 mi Calm Calm - N/A   Mostly Cloudy
9:53 AM 9.0 °F 2.4 °F 1.0 °F 70% 30.26 in 10.0 mi Variable 3.5 mph - N/A   Partly Cloudy
10:53 AM 12.0 °F 4.1 °F 1.0 °F 61% 30.27 in 10.0 mi ENE 4.6 mph - N/A   Clear
11:53 AM 15.1 °F - 3.0 °F 59% 30.27 in 10.0 mi Calm Calm - N/A   Clear
12:53 PM 16.0 °F - 1.9 °F 54% 30.25 in 10.0 mi Calm Calm - N/A   Clear
1:53 PM 18.0 °F 11.1 °F 3.9 °F 54% 30.24 in 10.0 mi ENE 4.6 mph - N/A   Scattered Clouds
2:53 PM 19.0 °F 11.1 °F 3.9 °F 52% 30.24 in 10.0 mi Variable 5.8 mph - N/A   Mostly Cloudy
3:53 PM 19.0 °F - 3.0 °F 50% 30.25 in 10.0 mi Calm Calm - N/A   Clear
4:53 PM 17.1 °F 10.0 °F 3.0 °F 54% 30.26 in 10.0 mi Variable 4.6 mph - N/A   Clear
5:53 PM 15.1 °F 7.7 °F 1.9 °F 56% 30.29 in 10.0 mi NNE 4.6 mph - N/A   Clear
6:53 PM 10.9 °F 4.7 °F 1.9 °F 67% 30.31 in 10.0 mi NNE 3.5 mph - N/A   Clear
7:53 PM 5.0 °F - -0.0 °F 80% 30.33 in 10.0 mi Calm Calm - N/A   Clear
8:53 PM 1.0 °F - -4.0 °F 79% 30.35 in 10.0 mi Calm Calm - N/A   Clear
9:53 PM -4.0 °F - -8.0 °F 83% 30.39 in 10.0 mi Calm Calm - N/A   Clear
10:53 PM 1.0 °F -10.3 °F -2.9 °F 83% 30.39 in 10.0 mi NNE 5.8 mph - N/A   Clear
11:53 PM 1.0 °F -6.7 °F -4.0 °F 79% 30.40 in 10.0 mi North 3.5 mph - N/A   Clear